SCP
0 0 0 0 0 0 0 0 0 0 0 0 0 0 0 0 0 0 0 0 0 0 0 0 0 0 0 0 0 0 0 0 0 0 0 0 0 0 0 0 0 0 0 0 0
0 0 0 0 0 0 0 0 0 0 0 0 0 0 0 0 0 0 0 0 0 0 0 0 0 0 0 0 0 0 0 0 0 0 0 0 0 0 0 0 0 0 0 0 0
0 0 0 0 0 0 0 0 0 0 0 0 0 0 0 0 0 0 0 0 0 0 0 0 0 0 0 0 0 0 0 0 0 0 0 0 0 0 0 0 0 0 0 0 0
0 0 0 0 0 0 0 0 0 0 0 0 0 0 0 0 0 0 0 0 0 0 0 0 0 0 0 0 0 0 0 0 0 0 0 0 0 0 0 0 0 0 0 0 0
0 0 0 0 0 0 0 0 0 0 0 0 0 0 0 0 0 0 0 0 0 0 0 0 0 0 0 0 0 -0 0 0 0 0 0 0 0 0 0 0 0 0 0 0 0
0 0 0 0 0 0 0 0 0 0 0 0 0 0 0 0 0 0 0 0 0 0 0 0 0 0 -0 0 0 0 -0 0 0 0 0 0 0 0 0 0 0 0 0 0 0
0 0 0 0 0 0 0 0 0 0 0 0 0 0 0 0 0 0 0 0 0 0 0 0 0 0 0 0 0 0 0 0 0 0 0 0 0 -0 0 0 0 0 0 0 0
0 0 0 0 0 0 0 0 0 0 0 0 0 0 0 0 0 0 0 0 0 0 0 0 0 0 0 -0 0 0 0 0 0 0 0 0 -0 0 0 0 0 0 0 0 0
0 0 0 0 0 0 0 0 0 0 0 0 0 0 0 0 0 0 0 0 0 0 0 0 0 0 0 0 0 0 0 -0 0 0 0 0 -0 0 0 0 0 0 0 0 0
0 0 0 0 0 0 0 0 0 0 0 0 0 0 0 0 0 0 0 0 0 0 0 -0 -0 -0 -0 -0 -0 0 0 0 0 0 0 -0 -0 -0 0 0 0 0 0 0 0
0 0 0 0 0 0 0 0 0 0 0 0 0 0 0 0 0 0 0 0 0 -0 0 0 0 0 0 0 0 0 -0 -0 0 0 0 0 -0 0 0 0 0 0 0 0 0
0 0 0 0 0 0 0 0 0 0 0 0 0 0 0 0 0 -0 0 0 0 0 0 0 0 0 0 0 0 0 -0 0 0 0 -0 0 -0 0 0 0 0 0 0 0 0
0 0 0 0 0 0 0 0 0 0 0 0 0 0 0 0 0 0 0 0 0 0 0 0 0 0 0 0 -0 0 0 0 0 0 0 0 0 0 0 0 0 0 0 0 0
0 0 0 0 0 -0 0 0 0 0 0 0 0 0 0 0 0 0 0 0 0 0 0 0 0 0 0 0 -0 0 0 0 0 0 0 0 0 0 0 0 0 0 0 0 0
0 0 0 0 0 0 0 -0 0 0 0 0 0 0 0 0 0 0 0 0 0 0 0 0 0 0 0 0 0 0 0 0 0 0 0 0 0 0 0 0 0 0 0 0 0
0 0 0 0 0 0 0 0 0 0 0 0 0 0 0 0 0 0 0 0 0 0 0 0 0 0 0 0 0 0 0 0 0 0 0 0 0 0 0 0 0 0 0 0 0
0 0 -0 0 0 0 0 0 0 0 0 0 0 0 0 0 0 0 0 -0 0 0 0 0 0 0 0 0 0 0 0 -0 0 0 0 0 0 0 0 0 0 0 0 0 0
0 0 0 0 0 0 0 0 0 0 0 0 0 0 0 0 0 0 0 0 0 -0 -0 -0 0 0 0 0 0 0 0 -0 0 0 0 0 0 0 0 0 0 0 0 0 0
0 0 0 0 0 0 0 0 0 0 0 0 0 0 0 0 0 0 -0 0 -0 0 0 0 0 0 0 0 0 0 0 0 0 0 0 0 0 0 0 0 0 0 0 0 0
0 0 0 0 0 0 0 0 0 0 0 0 0 0 0 0 0 -0 -0 -0 0 0 0 0 0 0 0 0 0 0 0 0 0 0 0 0 0 0 0 0 0 0 0 0 0
0 0 0 0 0 0 0 0 0 0 0 0 0 0 0 -0 -0 -0 0 0 0 0 0 0 0 0 0 0 0 0 0 0 0 0 0 0 0 0 0 0 0 0 0 0 0
0 0 0 0 0 0 0 0 0 0 0 0 0 0 0 0 0 0 0 0 0 0 0 0 0 0 0 0 0 0 0 0 0 0 0 0 0 0 0 0 0 0 0 0 0
0 0 0 0 0 0 0 0 0 0 0 0 0 0 0 0 0 0 0 0 0 0 0 0 0 0 0 0 0 0 0 0 0 0 0 0 0 0 0 0 0 0 0 0 0
0 0 0 0 0 0 0 0 0 0 0 0 0 0 0 0 0 0 0 0 0 0 0 0 0 0 0 0 0 0 0 0 0 0 0 0 0 0 0 0 0 0 0 0 0
0 0 0 0 0 0 0 0 0 0 0 0 0 0 0 0 0 0 0 0 0 0 0 0 0 0 0 0 0 0 0 0 0 0 0 0 0 0 0 0 0 0 0 0 0
0 0 0 0 0 0 0 0 0 0 0 0 0 0 0 0 0 0 0 0 0 0 0 0 0 0 0 0 0 0 0 0 0 0 0 0 0 0 0 0 0 0 0 0 0
0 0 0 0 0 0 0 0 0 0 0 0 0 0 0 0 0 0 0 0 0 0 0 0 0 0 0 0 0 0 0 0 0 0 0 0 0 0 0 0 0 0 0 0 0
Wind_Speed_500mb
37 33 30 29 26 23 21 18 15 10 9 15 24 34 32 28 21 12 19 12 11 8 16 21 20 19 15 13 13 6 5 10 7 7 10 7 3 7 5 8 4 1 3 13 16
34 32 30 29 29 27 23 20 14 12 13 16 19 23 27 33 26 32 22 12 12 12 16 15 10 10 10 9 11 9 4 6 10 12 9 6 3 3 8 9 6 10 9 10 11
37 31 26 26 24 27 27 26 20 14 15 18 21 17 15 15 11 25 17 12 12 12 13 14 15 14 14 14 16 11 7 11 12 10 6 3 4 5 12 12 8 8 12 10 9
39 37 34 31 27 28 27 29 29 24 22 18 10 4 1 10 8 22 21 13 11 15 12 12 6 8 10 12 9 11 15 12 7 6 1 3 2 8 13 6 7 10 15 15 12
42 39 34 28 25 28 30 35 37 27 22 20 22 26 27 31 20 28 27 14 14 14 11 8 12 11 13 13 17 18 9 11 7 8 4 6 10 17 17 15 14 13 14 16 14
34 37 40 38 28 29 27 24 32 39 30 29 32 31 25 50 26 29 27 22 13 13 18 15 18 30 25 12 15 11 18 12 8 5 7 9 11 6 16 22 23 20 16 16 15
30 31 31 30 28 20 24 25 27 25 33 38 43 46 57 28 28 28 34 34 30 33 36 29 17 4 13 16 13 14 8 4 6 9 5 8 18 28 21 19 23 24 23 18 12
34 32 26 28 17 15 16 18 20 17 24 22 32 29 20 30 28 20 28 33 36 34 35 33 32 29 13 23 7 3 4 5 8 6 1 7 21 10 21 22 29 27 24 24 22
37 35 29 32 27 6 22 15 22 26 25 20 19 16 12 20 30 24 20 22 27 28 28 23 24 17 8 5 5 1 6 8 5 8 10 10 28 14 14 23 34 34 32 30 31
37 34 27 31 16 26 43 42 25 2 8 16 17 12 24 21 29 24 17 14 12 10 9 17 15 13 19 10 7 13 10 9 12 8 13 29 48 45 38 29 35 36 36 37 38
36 34 22 20 38 12 2 10 10 22 66 25 18 15 23 14 34 31 12 13 14 20 11 17 20 18 16 13 8 10 13 20 15 8 17 22 43 43 43 46 36 41 40 40 39
31 32 21 12 13 20 26 24 21 20 23 37 42 30 35 29 16 41 21 11 18 13 9 12 15 11 8 9 9 10 15 14 17 2 19 28 51 37 7 22 33 38 38 37 36
28 26 23 8 11 8 17 25 19 13 6 19 30 33 27 22 22 40 30 13 19 16 28 15 5 7 5 10 15 3 6 12 15 26 6 27 19 9 7 6 10 21 29 34 39
29 26 26 10 3 4 7 8 7 6 10 29 21 22 30 7 10 38 27 9 11 5 10 13 2 4 6 6 12 8 7 14 19 15 8 10 10 16 5 6 10 20 27 30 32
28 26 32 18 7 4 4 6 6 5 9 21 15 18 22 16 12 28 35 14 14 9 5 4 8 10 6 4 3 7 13 13 10 7 12 3 6 11 3 5 6 8 18 25 26
28 22 33 19 16 7 6 6 6 12 5 10 13 21 9 20 12 18 13 14 9 3 20 6 1 4 7 9 7 18 10 8 5 4 6 6 9 17 5 2 1 2 4 9 13
26 26 36 23 15 6 7 5 11 11 4 11 9 13 8 16 13 22 12 19 11 8 10 2 3 3 5 9 7 12 7 7 5 4 7 4 11 23 15 8 6 9 8 7 8
17 30 45 27 17 7 8 8 16 1 5 3 6 8 10 19 9 13 4 6 16 9 2 7 5 2 7 6 6 8 3 4 10 10 17 7 13 8 4 2 6 10 8 9 11
14 14 56 33 20 9 5 13 6 2 5 10 3 8 7 5 5 9 11 6 9 15 6 8 6 6 6 5 4 5 3 6 5 4 4 7 12 23 8 6 4 1 5 6 10
14 9 56 34 21 11 12 8 2 3 6 4 3 2 2 10 8 8 9 5 5 9 8 9 12 6 4 3 7 3 6 2 2 12 15 8 9 16 4 6 5 6 4 3 17
15 7 50 31 16 20 9 4 3 3 2 5 3 2 4 6 7 4 1 4 2 3 4 4 4 4 2 8 7 5 4 2 4 4 7 13 10 8 9 5 5 6 5 15 29
15 8 42 18 16 14 5 1 1 3 2 2 3 2 3 2 3 2 4 2 3 1 4 4 3 10 12 5 2 3 6 7 6 5 8 7 20 5 5 8 3 11 14 28 35
9 12 31 14 7 4 3 2 3 5 5 5 6 4 4 6 2 4 4 4 5 3 3 4 3 10 7 3 5 8 10 7 1 4 17 10 16 2 7 4 9 15 25 24 14
8 7 16 26 18 9 7 2 2 3 2 1 3 2 3 2 2 6 5 5 2 2 3 1 6 10 15 15 3 16 12 16 12 8 13 30 51 43 29 8 27 21 13 13 14
14 7 5 5 11 9 4 6 3 4 2 3 4 7 2 5 2 5 4 7 6 7 4 3 9 8 26 30 22 37 34 21 28 36 19 49 32 54 39 33 25 12 18 12 10
6 4 7 5 2 1 2 7 11 5 9 4 6 3 9 8 6 4 1 6 4 8 8 5 5 6 16 18 17 23 31 25 34 41 40 55 64 45 34 3 12 12 11 7 8
7 3 3 1 0 1 4 7 9 12 16 12 15 8 10 14 12 11 11 7 2 4 9 4 4 2 10 7 22 19 20 22 13 15 14 18 22 4 4 7 9 6 8 6 12
Wind_Direction_500mb
35 36 40 43 44 50 57 59 70 88 85 96 107 95 87 91 74 96 72 43 78 112 126 119 118 116 109 78 65 48 157 151 124 156 104 121 186 48 33 117 84 39 150 149 188
32 32 39 43 48 45 47 52 57 72 93 115 121 109 101 94 82 64 34 50 90 113 130 120 132 109 68 45 23 22 150 90 40 48 83 81 291 101 219 172 136 129 133 155 199
30 33 34 45 40 40 46 44 44 65 97 113 126 121 110 73 76 15 34 71 102 115 130 128 123 94 66 40 17 19 55 113 65 47 56 71 179 215 241 230 225 221 193 204 208
36 37 42 44 48 54 46 42 48 72 97 115 124 140 104 13 68 15 41 77 109 118 121 122 75 56 62 52 12 99 53 48 42 19 64 222 266 254 256 332 169 184 202 214 222
39 41 41 43 46 50 58 65 61 77 91 92 101 100 77 78 38 41 41 85 105 122 134 104 75 80 86 90 66 73 97 62 80 81 24 309 264 280 244 225 216 208 210 220 220
35 32 36 37 39 58 59 57 71 79 87 97 103 86 89 74 45 48 58 75 100 117 91 77 91 103 81 59 46 113 106 97 74 46 15 304 265 291 219 208 211 214 216 220 227
24 16 15 22 29 48 64 70 77 89 93 91 94 82 72 58 51 57 70 73 83 107 103 102 90 119 104 103 98 122 95 136 63 360 326 319 252 237 233 212 222 223 221 226 233
19 21 29 23 28 46 69 87 84 92 90 65 72 67 69 41 50 68 71 73 86 91 96 94 98 86 66 117 108 142 238 275 120 340 226 315 286 227 194 218 231 227 225 227 231
21 27 40 43 45 51 66 94 85 90 77 69 54 68 49 36 44 50 62 70 78 76 77 80 78 77 79 150 142 151 306 305 137 44 318 246 291 90 208 228 239 232 230 231 233
20 28 40 46 62 67 76 82 61 165 75 47 44 76 30 7 26 37 57 68 59 51 40 41 54 83 37 345 27 4 339 331 311 23 302 275 268 276 254 234 249 249 237 233 235
15 22 40 53 58 57 83 5 24 36 62 60 48 70 18 29 42 18 40 44 40 49 39 31 66 52 24 20 350 336 326 315 303 37 322 283 289 288 280 261 243 250 243 238 241
16 16 19 29 35 49 79 92 99 116 71 50 53 44 32 35 21 33 53 55 45 57 354 70 58 18 339 347 344 332 311 326 296 142 329 307 295 291 320 270 252 244 245 242 241
16 19 13 355 25 77 95 100 106 110 61 24 28 27 17 32 37 10 28 33 52 48 45 70 50 327 321 17 352 0 328 340 305 319 261 301 280 197 180 253 263 244 241 239 238
11 18 15 18 17 34 86 91 85 107 79 357 2 16 360 41 45 16 25 52 52 107 53 68 25 314 329 66 351 308 29 325 303 326 300 2 289 294 159 280 222 237 237 243 243
10 12 13 12 12 45 113 80 76 84 63 349 350 347 12 63 333 12 27 48 53 33 297 39 3 3 13 322 317 322 331 309 314 270 315 150 280 287 191 174 196 226 240 245 245
8 14 9 12 28 72 112 103 76 38 46 343 335 357 15 25 23 340 26 57 82 56 53 93 206 345 325 296 251 313 304 270 258 243 273 73 359 284 252 75 147 168 311 309 265
13 21 12 24 19 45 122 96 43 89 333 330 343 359 355 4 8 13 24 35 28 36 14 248 171 91 353 298 198 304 312 331 327 291 279 126 275 258 292 296 290 326 344 339 306
18 29 18 23 33 73 122 55 67 98 269 10 323 307 47 1 37 1 23 57 53 358 23 358 295 40 357 20 327 342 334 352 309 307 310 155 234 258 80 350 279 267 289 327 319
16 23 15 16 24 79 93 53 169 3 335 346 289 35 6 46 359 356 37 41 20 12 2 335 259 121 40 354 343 6 348 12 288 88 282 243 267 268 47 315 280 302 332 345 355
22 21 9 13 23 56 73 122 158 349 326 291 23 313 289 342 352 28 9 55 33 33 15 25 300 55 51 328 59 310 9 309 118 318 307 237 268 257 289 263 18 22 333 308 333
32 38 1 9 30 52 83 128 197 204 322 356 42 348 11 356 343 353 14 134 76 76 58 122 136 313 185 196 172 169 206 190 290 251 272 304 274 179 203 153 142 279 241 318 328
30 40 358 24 42 54 75 228 163 160 189 203 322 69 193 174 229 269 302 240 166 201 350 75 316 269 245 130 343 260 255 221 245 202 251 294 273 41 130 131 127 311 294 319 317
39 18 13 38 88 65 133 220 214 180 197 193 183 199 157 190 293 230 231 130 165 212 350 138 248 303 269 198 168 222 200 194 126 259 231 261 262 246 107 148 300 309 323 326 351
15 16 27 50 75 104 142 171 198 261 271 246 347 277 206 215 276 319 325 63 89 351 308 298 273 232 256 273 27 263 205 207 207 256 269 236 273 278 289 357 341 338 350 349 350
19 61 42 337 30 61 85 140 90 321 289 289 316 235 171 338 279 230 210 189 168 185 189 213 261 285 264 273 278 268 266 222 212 235 248 275 279 282 300 317 326 335 326 332 344
39 16 54 87 71 119 303 208 176 197 166 185 202 176 184 211 230 299 206 226 256 181 200 165 269 343 296 308 293 280 275 244 237 256 258 264 276 279 290 256 305 313 319 316 314
5 43 29 278 222 204 207 192 220 170 209 207 202 182 225 247 263 255 240 239 231 208 194 192 241 281 265 337 326 282 250 198 204 210 205 234 261 119 269 321 326 308 277 259 303
Wind_Speed_850mb
37 33 30 29 26 23 21 18 15 10 9 15 24 34 32 28 21 12 19 12 11 8 16 21 20 19 15 13 13 6 5 10 7 7 10 7 3 7 5 8 4 1 3 13 16
34 32 30 29 29 27 23 20 14 12 13 16 19 23 27 33 26 32 22 12 12 12 16 15 10 10 10 9 11 9 4 6 10 12 9 6 3 3 8 9 6 10 9 10 11
37 31 26 26 24 27 27 26 20 14 15 18 21 17 15 15 11 25 17 12 12 12 13 14 15 14 14 14 16 11 7 11 12 10 6 3 4 5 12 12 8 8 12 10 9
39 37 34 31 27 28 27 29 29 24 22 18 10 4 1 10 8 22 21 13 11 15 12 12 6 8 10 12 9 11 15 12 7 6 1 3 2 8 13 6 7 10 15 15 12
42 39 34 28 25 28 30 35 37 27 22 20 22 26 27 31 20 28 27 14 14 14 11 8 12 11 13 13 17 18 9 11 7 8 4 6 10 17 17 15 14 13 14 16 14
34 37 40 38 28 29 27 24 32 39 30 29 32 31 25 50 26 29 27 22 13 13 18 15 18 30 25 12 15 11 18 12 8 5 7 9 11 6 16 22 23 20 16 16 15
30 31 31 30 28 20 24 25 27 25 33 38 43 46 57 28 28 28 34 34 30 33 36 29 17 4 13 16 13 14 8 4 6 9 5 8 18 28 21 19 23 24 23 18 12
34 32 26 28 17 15 16 18 20 17 24 22 32 29 20 30 28 20 28 33 36 34 35 33 32 29 13 23 7 3 4 5 8 6 1 7 21 10 21 22 29 27 24 24 22
37 35 29 32 27 6 22 15 22 26 25 20 19 16 12 20 30 24 20 22 27 28 28 23 24 17 8 5 5 1 6 8 5 8 10 10 28 14 14 23 34 34 32 30 31
37 34 27 31 16 26 43 42 25 2 8 16 17 12 24 21 29 24 17 14 12 10 9 17 15 13 19 10 7 13 10 9 12 8 13 29 48 45 38 29 35 36 36 37 38
36 34 22 20 38 12 2 10 10 22 66 25 18 15 23 14 34 31 12 13 14 20 11 17 20 18 16 13 8 10 13 20 15 8 17 22 43 43 43 46 36 41 40 40 39
31 32 21 12 13 20 26 24 21 20 23 37 42 30 35 29 16 41 21 11 18 13 9 12 15 11 8 9 9 10 15 14 17 2 19 28 51 37 7 22 33 38 38 37 36
28 26 23 8 11 8 17 25 19 13 6 19 30 33 27 22 22 40 30 13 19 16 28 15 5 7 5 10 15 3 6 12 15 26 6 27 19 9 7 6 10 21 29 34 39
29 26 26 10 3 4 7 8 7 6 10 29 21 22 30 7 10 38 27 9 11 5 10 13 2 4 6 6 12 8 7 14 19 15 8 10 10 16 5 6 10 20 27 30 32
28 26 32 18 7 4 4 6 6 5 9 21 15 18 22 16 12 28 35 14 14 9 5 4 8 10 6 4 3 7 13 13 10 7 12 3 6 11 3 5 6 8 18 25 26
28 22 33 19 16 7 6 6 6 12 5 10 13 21 9 20 12 18 13 14 9 3 20 6 1 4 7 9 7 18 10 8 5 4 6 6 9 17 5 2 1 2 4 9 13
26 26 36 23 15 6 7 5 11 11 4 11 9 13 8 16 13 22 12 19 11 8 10 2 3 3 5 9 7 12 7 7 5 4 7 4 11 23 15 8 6 9 8 7 8
17 30 45 27 17 7 8 8 16 1 5 3 6 8 10 19 9 13 4 6 16 9 2 7 5 2 7 6 6 8 3 4 10 10 17 7 13 8 4 2 6 10 8 9 11
14 14 56 33 20 9 5 13 6 2 5 10 3 8 7 5 5 9 11 6 9 15 6 8 6 6 6 5 4 5 3 6 5 4 4 7 12 23 8 6 4 1 5 6 10
14 9 56 34 21 11 12 8 2 3 6 4 3 2 2 10 8 8 9 5 5 9 8 9 12 6 4 3 7 3 6 2 2 12 15 8 9 16 4 6 5 6 4 3 17
15 7 50 31 16 20 9 4 3 3 2 5 3 2 4 6 7 4 1 4 2 3 4 4 4 4 2 8 7 5 4 2 4 4 7 13 10 8 9 5 5 6 5 15 29
15 8 42 18 16 14 5 1 1 3 2 2 3 2 3 2 3 2 4 2 3 1 4 4 3 10 12 5 2 3 6 7 6 5 8 7 20 5 5 8 3 11 14 28 35
9 12 31 14 7 4 3 2 3 5 5 5 6 4 4 6 2 4 4 4 5 3 3 4 3 10 7 3 5 8 10 7 1 4 17 10 16 2 7 4 9 15 25 24 14
8 7 16 26 18 9 7 2 2 3 2 1 3 2 3 2 2 6 5 5 2 2 3 1 6 10 15 15 3 16 12 16 12 8 13 30 51 43 29 8 27 21 13 13 14
14 7 5 5 11 9 4 6 3 4 2 3 4 7 2 5 2 5 4 7 6 7 4 3 9 8 26 30 22 37 34 21 28 36 19 49 32 54 39 33 25 12 18 12 10
6 4 7 5 2 1 2 7 11 5 9 4 6 3 9 8 6 4 1 6 4 8 8 5 5 6 16 18 17 23 31 25 34 41 40 55 64 45 34 3 12 12 11 7 8
7 3 3 1 0 1 4 7 9 12 16 12 15 8 10 14 12 11 11 7 2 4 9 4 4 2 10 7 22 19 20 22 13 15 14 18 22 4 4 7 9 6 8 6 12
Wind_Direction_850mb
35 36 40 43 44 50 57 59 70 88 85 96 107 95 87 91 74 96 72 43 78 112 126 119 118 116 109 78 65 48 157 151 124 156 104 121 186 48 33 117 84 39 150 149 188
32 32 39 43 48 45 47 52 57 72 93 115 121 109 101 94 82 64 34 50 90 113 130 120 132 109 68 45 23 22 150 90 40 48 83 81 291 101 219 172 136 129 133 155 199
30 33 34 45 40 40 46 44 44 65 97 113 126 121 110 73 76 15 34 71 102 115 130 128 123 94 66 40 17 19 55 113 65 47 56 71 179 215 241 230 225 221 193 204 208
36 37 42 44 48 54 46 42 48 72 97 115 124 140 104 13 68 15 41 77 109 118 121 122 75 56 62 52 12 99 53 48 42 19 64 222 266 254 256 332 169 184 202 214 222
39 41 41 43 46 50 58 65 61 77 91 92 101 100 77 78 38 41 41 85 105 122 134 104 75 80 86 90 66 73 97 62 80 81 24 309 264 280 244 225 216 208 210 220 220
35 32 36 37 39 58 59 57 71 79 87 97 103 86 89 74 45 48 58 75 100 117 91 77 91 103 81 59 46 113 106 97 74 46 15 304 265 291 219 208 211 214 216 220 227
24 16 15 22 29 48 64 70 77 89 93 91 94 82 72 58 51 57 70 73 83 107 103 102 90 119 104 103 98 122 95 136 63 360 326 319 252 237 233 212 222 223 221 226 233
19 21 29 23 28 46 69 87 84 92 90 65 72 67 69 41 50 68 71 73 86 91 96 94 98 86 66 117 108 142 238 275 120 340 226 315 286 227 194 218 231 227 225 227 231
21 27 40 43 45 51 66 94 85 90 77 69 54 68 49 36 44 50 62 70 78 76 77 80 78 77 79 150 142 151 306 305 137 44 318 246 291 90 208 228 239 232 230 231 233
20 28 40 46 62 67 76 82 61 165 75 47 44 76 30 7 26 37 57 68 59 51 40 41 54 83 37 345 27 4 339 331 311 23 302 275 268 276 254 234 249 249 237 233 235
15 22 40 53 58 57 83 5 24 36 62 60 48 70 18 29 42 18 40 44 40 49 39 31 66 52 24 20 350 336 326 315 303 37 322 283 289 288 280 261 243 250 243 238 241
16 16 19 29 35 49 79 92 99 116 71 50 53 44 32 35 21 33 53 55 45 57 354 70 58 18 339 347 344 332 311 326 296 142 329 307 295 291 320 270 252 244 245 242 241
16 19 13 355 25 77 95 100 106 110 61 24 28 27 17 32 37 10 28 33 52 48 45 70 50 327 321 17 352 0 328 340 305 319 261 301 280 197 180 253 263 244 241 239 238
11 18 15 18 17 34 86 91 85 107 79 357 2 16 360 41 45 16 25 52 52 107 53 68 25 314 329 66 351 308 29 325 303 326 300 2 289 294 159 280 222 237 237 243 243
10 12 13 12 12 45 113 80 76 84 63 349 350 347 12 63 333 12 27 48 53 33 297 39 3 3 13 322 317 322 331 309 314 270 315 150 280 287 191 174 196 226 240 245 245
8 14 9 12 28 72 112 103 76 38 46 343 335 357 15 25 23 340 26 57 82 56 53 93 206 345 325 296 251 313 304 270 258 243 273 73 359 284 252 75 147 168 311 309 265
13 21 12 24 19 45 122 96 43 89 333 330 343 359 355 4 8 13 24 35 28 36 14 248 171 91 353 298 198 304 312 331 327 291 279 126 275 258 292 296 290 326 344 339 306
18 29 18 23 33 73 122 55 67 98 269 10 323 307 47 1 37 1 23 57 53 358 23 358 295 40 357 20 327 342 334 352 309 307 310 155 234 258 80 350 279 267 289 327 319
16 23 15 16 24 79 93 53 169 3 335 346 289 35 6 46 359 356 37 41 20 12 2 335 259 121 40 354 343 6 348 12 288 88 282 243 267 268 47 315 280 302 332 345 355
22 21 9 13 23 56 73 122 158 349 326 291 23 313 289 342 352 28 9 55 33 33 15 25 300 55 51 328 59 310 9 309 118 318 307 237 268 257 289 263 18 22 333 308 333
32 38 1 9 30 52 83 128 197 204 322 356 42 348 11 356 343 353 14 134 76 76 58 122 136 313 185 196 172 169 206 190 290 251 272 304 274 179 203 153 142 279 241 318 328
30 40 358 24 42 54 75 228 163 160 189 203 322 69 193 174 229 269 302 240 166 201 350 75 316 269 245 130 343 260 255 221 245 202 251 294 273 41 130 131 127 311 294 319 317
39 18 13 38 88 65 133 220 214 180 197 193 183 199 157 190 293 230 231 130 165 212 350 138 248 303 269 198 168 222 200 194 126 259 231 261 262 246 107 148 300 309 323 326 351
15 16 27 50 75 104 142 171 198 261 271 246 347 277 206 215 276 319 325 63 89 351 308 298 273 232 256 273 27 263 205 207 207 256 269 236 273 278 289 357 341 338 350 349 350
19 61 42 337 30 61 85 140 90 321 289 289 316 235 171 338 279 230 210 189 168 185 189 213 261 285 264 273 278 268 266 222 212 235 248 275 279 282 300 317 326 335 326 332 344
39 16 54 87 71 119 303 208 176 197 166 185 202 176 184 211 230 299 206 226 256 181 200 165 269 343 296 308 293 280 275 244 237 256 258 264 276 279 290 256 305 313 319 316 314
5 43 29 278 222 204 207 192 220 170 209 207 202 182 225 247 263 255 240 239 231 208 194 192 241 281 265 337 326 282 250 198 204 210 205 234 261 119 269 321 326 308 277 259 303